Regional Weather Roundup
Issued by NWS Newport/Morehead, NC

Current Version | Previous Version | Graphics & Text | Print | Product List | Glossary On
Versions: 1 2 3 4 5 6 7 8 9 10 11 12 13 14 15 16 17 18 19 20 21 22 23 24 25 26 27 28 29 30 31 32 33 34 35 36 37 38 39 40 41 42 43 44 45 46 47
000 ASUS42 KMHX 191214 RWRMHX WEATHER ROUNDUP FOR EASTERN NORTH CAROLINA NATIONAL WEATHER SERVICE NEWPORT/MOREHEAD CITY NC 800 AM EDT SAT AUG 19 2017 NOTE: "FAIR" INDICATES FEW OR NO CLOUDS BELOW 12,000 FEET WITH NO SIGNIFICANT WEATHER AND/OR OBSTRUCTIONS TO VISIBILITY NCZ015>017-031-032-045>047-102-103-191300- NORTH COAST CITY SKY/WX TMP DP RH WIND PRES REMARKS EDENTON CLOUDY 81 78 89 W7 29.91R ELIZABETH CITY CLOUDY 80 79 96 W6 29.90R KITTY HAWK MOSUNNY 80 76 88 CALM 29.89R MANTEO CLOUDY 80 77 91 W9 29.90S $$ NCZ045>047-081-094-103-104-191300- CENTRAL COAST CITY SKY/WX TMP DP RH WIND PRES REMARKS FRISCO MOSUNNY 82 80 94 SW9 29.93R $$ NCZ095-097-098-100-101-191300- SOUTHERN COAST CITY SKY/WX TMP DP RH WIND PRES REMARKS BEAUFORT CLOUDY 84 82 94 SW10 29.93R HX 100 CEDAR ISLAND NOT AVBL JACKSONVILLE SUNNY 82 80 94 SW7 29.93R PINEY ISLAND MOSUNNY N/A N/A N/A SW12 29.92R WILMINGTON MOSUNNY 83 80 91 SW7 29.93R $$ NCZ011>013-027>030-043-044-078>080-089-090>093-098-191300- COASTAL PLAIN CITY SKY/WX TMP DP RH WIND PRES REMARKS AHOSKIE N/A 76 75 96 CALM 29.91R CLINTON CLOUDY 78 78 100 CALM 29.94R ELIZABETHTOWN NOT AVBL GOLDSBORO SUNNY 79 79 100 SW3 29.92R GREENVILLE SUNNY 79 79 100 W5 29.94R HAVELOCK SUNNY 82 78 88 SW8 29.93S KENANSVILLE PTSUNNY 79 77 94 W5 29.93R KINSTON NOT AVBL NEW BERN SUNNY 81 79 94 SW7 29.93R RICHLANDS SUNNY 81 78 91 SW6 29.93R ROCKY MOUNT MOSUNNY 77 74 90 W7 29.93R WASHINGTON CLOUDY 79 77 93 SW6 29.92R WHITEVILLE CLOUDY 80 78 93 CALM 29.93S $$ AMZ130-135-150-152-154-156-158-170-250-252-270-ANZ085-086-088-633-658-670-191300- MARINE OBSERVATIONS STATION/POSITION TIME TEMP WIND PRES WAVE SWELL AIR SEA DIR/SP/G HT/PER HT/PER (UTC) (F) (DEG/KT/KT) (MB) (FT/S) (FT/S) CHESAPEAKE LIGHT NOT AVBL 64 E VA BEACH 1150 78 77 200/ 2/ 4 1012.5 4/ 6 3/ 6 DUCK 1136 81 69 240/ 10/ 13 1011.8 2 E DUCK 1200 76 N/A 2/ 8 OREGON INLET 1136 82 83 230/ 12/ 16 1012.4 13E OREGON INLT 1148 78 N/A 3/ 6 2/ 9 HATTERAS CG 1136 80 83 240/ 7/ 11 1013.1 DIAMOND BUOY 1150 84 84 240/ 17/ 21 1013.0 5/ 6 2/ 8 CAPE LOOKOUT 1200 84 230/ 9/ 13 1013.2 BEAUFORT LAB 1136 83 81 240/ 4/ 12 1012.7 30 SE NEW RVR IN 1108 81 83 240/ 16/ 19 1013.6 30 SE NEW RVR IN 1143 83 N/A 5/ 6 27 SE WRIGHTSVLE 1108 83 83 220/ 14/ 19 1013.4 5 SE WRIGHTSVLE 1108 83 83 220/ 12/ 16 1013.2 225 S CAPE HAT 1150 83 84 230/ 10/ 14 1016.2 4/ 5 3/10 41 SE CHARLESTON 1200 83 84 220/ 12/ 16 1013.9 $$

USA.gov is the U.S. government's official web portal to all federal, state and local government web resources and services.